Weather History for KCDW - August, 2013

Change the Weather History Date:

Saturday, August 24, 2013

  Actual Average Record
Temperature  
Mean Temperature 69 °F -  
Max Temperature 79 °F 81 °F 91 °F (1980)
Min Temperature 59 °F 57 °F 44 °F (1952)
Cooling Degree Days 4    
Growing Degree Days 19 (Base 50)    
Moisture  
Dew Point 52 °F    
Average Humidity 58    
Maximum Humidity 86    
Minimum Humidity 34    
Precipitation  
Precipitation 0.00 in - - ()
Sea Level Pressure  
Sea Level Pressure 30.29 in    
Wind  
Wind Speed 3 mph (ENE)    
Max Wind Speed 9 mph    
Max Gust Speed -    
Visibility 10 miles    
Events      
Averages and records for this station are not official NWS values.
T = Trace of Precipitation, MM = Missing Value Source: NWS Daily Summary

Daily Weather History Graph

Daily Weather History Graph

Search for Another Location

Airport or City:

Trip Planner

Search our weather history database for the weather conditions in past years. The results will help you decide how hot, cold, wet, or windy it might be!

Date:

Astronomy

Aug. 24, 2013 Rise Set
Actual Time 6:16 AM EDT 7:41 PM EDT
Civil Twilight 5:47 AM EDT 8:10 PM EDT
Nautical Twilight 5:12 AM EDT 8:44 PM EDT
Astronomical Twilight 4:36 AM EDT 9:21 PM EDT
Moon 9:32 PM EDT (8/24) 10:15 AM EDT (8/24)
Length of Visible Light 14h 22m
Length of Day
13h 25m
Waning Gibbous, 84% of the Moon is Illuminated
Aug 24
Waning Gibbous
Aug 28
Last Quarter
Sep 5
New
Sep 12
First Quarter
Sep 19
Full

Hourly Weather History & Observations

Time (EDT) Temp. Dew Point Humidity Pressure Visibility Wind Dir Wind Speed Gust Speed Precip Events Conditions
12:53 AM 64.0 °F 54.0 °F 70% 30.16 in 10.0 mi Calm Calm - N/A   Mostly Cloudy
1:53 AM 63.0 °F 53.1 °F 70% 30.18 in 10.0 mi Calm Calm - N/A   Clear
2:53 AM 61.0 °F 52.0 °F 72% 30.20 in 10.0 mi Calm Calm - N/A   Clear
3:53 AM 60.1 °F 52.0 °F 75% 30.22 in 10.0 mi Calm Calm - N/A   Clear
4:53 AM 60.1 °F 52.0 °F 75% 30.23 in 10.0 mi NE 4.6 mph - N/A   Clear
5:53 AM 59.0 °F 51.1 °F 75% 30.25 in 10.0 mi NE 3.5 mph - N/A   Clear
6:53 AM 59.0 °F 51.1 °F 75% 30.27 in 10.0 mi ENE 4.6 mph - N/A   Clear
7:53 AM 62.1 °F 51.1 °F 67% 30.30 in 10.0 mi Calm Calm - N/A   Clear
8:53 AM 66.9 °F 51.1 °F 57% 30.31 in 10.0 mi Variable 3.5 mph - N/A   Clear
9:53 AM 69.1 °F 50.0 °F 51% 30.32 in 10.0 mi NNE 9.2 mph - N/A   Clear
10:53 AM 72.0 °F 51.1 °F 48% 30.32 in 10.0 mi Variable 6.9 mph - N/A   Clear
11:53 AM 73.9 °F 50.0 °F 43% 30.32 in 10.0 mi East 9.2 mph - N/A   Clear
12:53 PM 75.9 °F 48.0 °F 37% 30.31 in 10.0 mi NNE 8.1 mph - N/A   Clear
1:53 PM 75.9 °F 48.0 °F 37% 30.32 in 10.0 mi Calm Calm - N/A   Clear
2:53 PM 78.1 °F 50.0 °F 37% 30.31 in 10.0 mi East 5.8 mph - N/A   Clear
3:53 PM 77.0 °F 48.0 °F 36% 30.31 in 10.0 mi Variable 5.8 mph - N/A   Clear
4:53 PM 79.0 °F 48.0 °F 34% 30.30 in 10.0 mi East 5.8 mph - N/A   Clear
5:53 PM 79.0 °F 48.0 °F 34% 30.30 in 10.0 mi Variable 6.9 mph - N/A   Clear
6:53 PM 75.0 °F 54.0 °F 48% 30.31 in 10.0 mi South 5.8 mph - N/A   Clear
7:53 PM 72.0 °F 55.9 °F 57% 30.33 in 10.0 mi Calm Calm - N/A   Clear
8:53 PM 69.1 °F 55.9 °F 63% 30.35 in 10.0 mi Calm Calm - N/A   Clear
9:53 PM 64.9 °F 57.0 °F 75% 30.37 in 10.0 mi Calm Calm - N/A   Clear
10:53 PM 63.0 °F 55.9 °F 78% 30.37 in 10.0 mi Calm Calm - N/A   Clear
11:53 PM 60.1 °F 55.9 °F 86% 30.38 in 10.0 mi Calm Calm - N/A   Clear